, AK

(GMT )
Portage Glacier

Weather History for PATO - November, 2013

Change the Weather History Date:

Friday, November 29, 2013

  Actual Average Record
Temperature  
Mean Temperature 10 °F -  
Max Temperature 12 °F - - ()
Min Temperature 7 °F - - ()
Degree Days  
Heating Degree Days 56    
Moisture  
Dew Point 3 °F    
Average Humidity 73    
Maximum Humidity 84    
Minimum Humidity 56    
Precipitation  
Precipitation 0.00 in - - ()
Sea Level Pressure  
Sea Level Pressure 30.04 in    
Wind  
Wind Speed 11 mph (West)    
Max Wind Speed 17 mph    
Max Gust Speed 31 mph    
Visibility 10 miles    
Events      
Averages and records for this station are not official NWS values.
T = Trace of Precipitation, MM = Missing Value Source: NWS Daily Summary

Daily Weather History Graph

Daily Weather History Graph

Search for Another Location

Airport or City:

Trip Planner

Search our weather history database for the weather conditions in past years. The results will help you decide how hot, cold, wet, or windy it might be!

Date:

Astronomy

Nov. 29, 2013 Rise Set
Actual Time 9:33 AM AKST 3:53 PM AKST
Civil Twilight 8:37 AM AKST 4:49 PM AKST
Nautical Twilight 7:41 AM AKST 5:45 PM AKST
Astronomical Twilight 6:49 AM AKST 6:37 PM AKST
Moon 4:53 AM AKST 2:34 PM AKST
Length of Visible Light 8h 11m
Length of Day
6h 19m
Waning Crescent, 13% of the Moon is Illuminated
Nov 29
Waning Crescent
Dec 2
New
Dec 9
First Quarter
Dec 17
Full
Dec 25
Last Quarter

Hourly Weather History & Observations

Time (AKST) Temp. Windchill Dew Point Humidity Pressure Visibility Wind Dir Wind Speed Gust Speed Precip Events Conditions
12:53 AM 12.9 °F 0.7 °F 1.0 °F 59% 29.95 in 10.0 mi West 9.2 mph - N/A   Clear
1:53 AM 10.9 °F 2.9 °F 1.0 °F 64% 29.97 in 10.0 mi West 4.6 mph - N/A   Clear
2:53 AM 12.9 °F -0.2 °F -0.0 °F 56% 29.98 in 10.0 mi West 10.4 mph 18.4 mph N/A   Clear
3:53 AM 12.9 °F -0.9 °F -0.0 °F 56% 29.98 in 10.0 mi West 11.5 mph 18.4 mph N/A   Clear
4:53 AM 12.9 °F 0.7 °F 1.0 °F 59% 29.99 in 10.0 mi West 9.2 mph 17.3 mph N/A   Clear
5:53 AM 12.0 °F -1.3 °F 3.9 °F 70% 29.99 in 10.0 mi WNW 10.4 mph 20.7 mph N/A   Clear
6:53 AM 12.0 °F -3.4 °F 5.0 °F 73% 29.99 in 10.0 mi West 13.8 mph 23.0 mph N/A   Clear
7:53 AM 10.9 °F -3.4 °F 5.0 °F 77% 29.99 in 10.0 mi West 11.5 mph 20.7 mph N/A   Clear
8:53 AM 12.0 °F -3.4 °F 3.9 °F 70% 29.99 in 10.0 mi West 13.8 mph 23.0 mph N/A   Clear
9:53 AM 10.9 °F -5.4 °F 3.9 °F 73% 30.01 in 10.0 mi West 15.0 mph 25.3 mph N/A   Clear
10:53 AM 10.9 °F -6.5 °F 3.0 °F 70% 30.01 in 10.0 mi West 17.3 mph 26.5 mph N/A   Clear
11:53 AM 10.9 °F -5.9 °F 3.0 °F 70% 30.03 in 10.0 mi West 16.1 mph 21.9 mph N/A   Clear
12:53 PM 10.0 °F -7.1 °F 3.9 °F 76% 30.04 in 10.0 mi West 16.1 mph 31.1 mph N/A   Clear
1:53 PM 10.0 °F -5.9 °F 3.0 °F 73% 30.04 in 10.0 mi West 13.8 mph 29.9 mph N/A   Clear
2:53 PM 10.0 °F -5.2 °F 1.9 °F 70% 30.05 in 10.0 mi West 12.7 mph 25.3 mph N/A   Clear
3:53 PM 10.0 °F -6.5 °F 3.0 °F 73% 30.04 in 10.0 mi West 15.0 mph 23.0 mph N/A   Clear
4:53 PM 9.0 °F -5.1 °F 3.9 °F 80% 30.04 in 10.0 mi West 10.4 mph 20.7 mph N/A   Clear
5:53 PM 9.0 °F -6.6 °F 1.9 °F 73% 30.07 in 10.0 mi West 12.7 mph 20.7 mph N/A   Clear
6:53 PM 9.0 °F -7.3 °F 3.9 °F 80% 30.07 in 10.0 mi West 13.8 mph 19.6 mph N/A   Clear
7:53 PM 9.0 °F -6.6 °F 3.9 °F 80% 30.07 in 10.0 mi West 12.7 mph 19.6 mph N/A   Clear
8:53 PM 8.1 °F -5.3 °F 3.9 °F 83% 30.09 in 10.0 mi West 9.2 mph 18.4 mph N/A   Clear
9:53 PM 9.0 °F -5.1 °F 3.0 °F 77% 30.09 in 10.0 mi West 10.4 mph 20.7 mph N/A   Partly Cloudy
10:53 PM 8.1 °F -7.0 °F 3.0 °F 80% 30.11 in 10.0 mi West 11.5 mph 21.9 mph N/A   Partly Cloudy
11:26 PM 7.0 °F -7.5 °F 3.0 °F 84% 30.11 in 10.0 mi West 10.4 mph 19.6 mph N/A   Mostly Cloudy
11:33 PM 7.0 °F -9.1 °F 3.0 °F 84% 30.11 in 10.0 mi West 12.7 mph 21.9 mph N/A   Scattered Clouds
11:53 PM 8.1 °F -7.7 °F 3.0 °F 80% 30.13 in 10.0 mi West 12.7 mph 19.6 mph N/A   Partly Cloudy